Wells Aircraft, Inc. Hutchinson Municipal
(888) 496-5545
800 Airport Road
Hutchinson, KS 67501
(change)
Av Fuel Aviation Fuel Jet A: $4.61
100LL: $4.59
Prices current
Dec 7, 2017

Location

Wells Aircraft is located on the south end of the Hutchinson Municipal Airport (KHUT), in Hutchinson, Kansas.

Wells Aircraft, Inc.
800 Airport Road
Hutchinson, KS 67501
Map
Wells Location at KHUT

Quick Links


AirNav Information
(KHUT)

Hutchinson Weather

Hutchinson (KHUT)
Airport Diagram

Additional Resources

They say, "if you don't like the weather in Kansas, wait five minutes and it'll change." Be prepared with these aviation resources.

KHUT 121452Z 29007KT 10SM CLR M02/M04 A3038 RMK AO2 SLP294 T10171039 50001                KHUT 121452Z 29007KT 10SM CLR M02/M04 A3038 RMK AO2 SLP294 T10171039 50001                KHUT 121452Z 29007KT 10SM CLR M02/M04 A3038 RMK AO2 SLP294 T10171039 50001                KHUT 121452Z 29007KT 10SM CLR M02/M04 A3038 RMK AO2 SLP294 T10171039 50001                KHUT 121452Z 29007KT 10SM CLR M02/M04 A3038 RMK AO2 SLP294 T10171039 50001                KHUT 121452Z 29007KT 10SM CLR M02/M04 A3038 RMK AO2 SLP294 T10171039 50001                
 
 
Cirrus Aircraft